Dewpoint
16 16 16 17 17 17 18 18 18 18 18 19 19 19 20 22 22 21 23 23 21 20 19 19 19 19 21 26 29 30 31 32 32 33 33 33 33 33 33 33 34 34 34 34 35 35 36 36 37 37 37 37 38 38 38 38 38 38 38 38 38 38 38 38 39 39 40 40 41 41 42 42 42 42 42 42 42 42 43 43 43 43 43 43 43 43
16 16 17 17 17 17 17 18 18 18 18 18 19 19 20 20 20 20 21 21 21 20 19 19 19 19 18 23 27 30 31 32 32 33 33 33 33 33 33 33 34 34 34 35 35 36 36 36 37 37 37 37 38 38 38 38 38 38 38 38 38 38 38 38 38 38 38 39 39 40 40 41 41 41 41 41 42 42 42 42 42 42 42 42 42 42
15 15 16 17 17 17 17 17 18 18 19 19 20 20 20 19 19 20 20 20 21 21 20 20 20 20 19 22 27 30 31 32 33 33 33 33 33 33 33 34 34 34 35 35 35 36 36 36 37 37 37 37 37 38 38 38 38 38 38 38 38 38 38 37 37 37 37 37 38 38 38 39 40 40 40 40 41 41 41 42 41 41 41 41 41 41
15 15 15 17 17 17 17 18 18 19 20 20 20 20 20 20 20 20 20 20 21 21 21 21 20 20 20 22 26 29 31 32 33 33 33 33 33 33 34 34 34 34 35 35 35 36 36 36 36 36 36 36 37 37 37 37 37 37 36 36 36 36 35 35 35 35 36 36 37 37 38 38 38 38 38 38 39 39 39 40 40 40 40 40 41 41
15 15 16 17 17 18 18 19 19 20 21 21 21 21 20 21 20 20 21 21 21 21 21 21 21 21 21 22 24 29 31 32 33 33 33 33 33 34 34 34 34 35 35 35 35 35 35 35 35 35 36 36 36 36 36 36 36 36 35 35 35 35 34 34 35 35 36 36 37 38 38 38 38 37 38 38 38 38 38 38 39 39 40 40 41 41
16 16 18 18 18 18 19 19 20 20 21 21 21 21 21 22 22 21 21 21 21 21 21 22 22 22 22 23 25 29 31 32 33 33 33 33 33 34 34 34 34 34 34 34 34 34 34 35 35 35 35 35 35 35 35 35 35 35 35 35 36 36 36 36 36 36 36 36 36 37 37 38 38 38 38 38 38 38 37 38 38 39 39 40 40 41
16 17 19 19 19 19 20 20 20 21 21 20 21 21 21 22 22 22 22 22 22 22 22 22 23 23 23 24 27 29 30 31 32 33 33 33 33 33 33 33 33 33 33 34 34 34 34 34 34 34 34 34 34 34 34 34 35 35 36 36 37 37 36 36 35 35 35 35 35 36 37 37 37 37 38 38 38 37 37 37 38 39 39 40 40 40
18 18 19 19 19 20 20 20 21 21 21 21 20 20 21 21 22 23 23 24 24 23 23 24 24 24 24 24 25 27 27 28 28 29 29 30 31 31 32 32 32 33 33 33 33 33 33 33 33 33 33 33 33 33 33 33 33 34 35 36 36 35 34 34 33 33 33 34 34 35 36 37 37 37 37 37 37 37 37 38 38 39 39 39 40 40
19 19 19 19 19 20 20 20 21 22 22 22 21 21 21 21 22 23 23 23 24 24 24 24 24 24 24 24 24 24 25 25 24 24 24 24 24 26 29 30 31 31 32 32 32 32 32 32 32 32 32 32 32 32 32 32 32 33 33 33 33 32 32 32 32 32 33 34 34 35 36 36 36 36 36 36 36 37 37 38 38 38 38 38 39 39
20 20 20 20 20 20 20 21 21 22 23 23 23 23 23 23 23 23 22 22 23 24 25 25 25 24 24 23 23 23 22 24 24 25 26 25 25 26 28 28 29 29 30 31 31 31 31 31 31 31 32 32 32 32 31 31 31 31 31 31 30 30 30 31 31 32 33 34 34 35 36 36 36 36 36 36 36 36 37 37 37 37 37 38 38 38
20 20 20 20 21 21 22 22 22 23 24 24 25 25 25 24 24 23 22 23 24 25 26 26 24 23 21 20 20 20 20 20 21 24 26 27 28 28 28 28 28 29 29 30 30 30 30 30 30 30 30 30 30 30 30 30 30 30 30 29 29 29 30 30 31 32 33 33 34 35 35 36 36 36 36 36 36 36 36 36 36 36 36 37 37 38
20 20 21 21 22 22 23 24 24 25 25 25 25 24 23 23 23 23 23 24 25 26 25 24 22 20 20 18 18 19 19 18 19 20 21 22 24 24 24 24 25 26 27 28 28 29 29 29 29 29 29 29 29 29 29 28 29 29 29 29 29 29 29 30 30 31 32 33 33 34 35 36 36 36 36 36 36 36 36 35 35 36 36 37 37 38
21 21 21 22 22 23 24 24 24 25 24 24 23 21 20 21 23 24 26 26 26 25 23 21 20 19 19 19 19 19 19 19 20 20 20 20 20 20 20 20 20 20 21 21 22 23 26 27 28 28 28 27 28 28 28 28 28 28 28 28 29 29 29 29 30 31 32 33 33 34 35 36 36 36 37 37 37 36 36 35 36 36 37 37 38 38
21 21 22 23 23 24 24 24 24 24 23 22 21 21 21 22 24 26 27 26 25 23 21 20 19 19 19 20 21 21 20 20 20 19 19 18 19 19 19 19 19 19 19 19 20 21 24 24 24 25 27 27 27 27 28 28 28 28 28 29 29 29 29 30 31 32 33 33 34 35 35 36 36 36 37 37 37 36 36 36 36 36 37 38 38 38
21 22 22 23 23 24 24 24 24 23 22 22 22 22 22 24 25 26 26 24 23 21 20 20 19 19 20 20 21 21 20 20 19 18 18 18 19 19 20 19 19 20 20 20 20 21 24 23 23 23 24 25 26 26 27 27 28 29 29 29 29 30 31 31 32 33 33 34 34 35 35 36 36 37 37 36 36 36 35 35 36 36 37 38 38 38
22 23 23 24 24 24 24 24 24 23 22 22 22 22 23 25 26 25 24 22 21 20 20 20 20 19 20 20 20 20 20 20 19 18 18 18 19 19 19 19 19 20 20 20 20 21 22 22 22 23 24 25 27 28 29 29 29 29 29 30 30 31 32 32 33 33 33 34 35 35 35 36 36 36 36 35 35 35 35 35 36 36 37 38 38 38
24 24 25 25 25 25 25 24 24 23 22 22 23 24 26 26 25 24 23 22 21 20 20 20 20 19 19 19 20 20 20 20 20 20 19 19 19 19 19 19 19 19 19 20 20 20 20 21 21 22 23 26 27 28 28 29 29 29 30 31 31 31 32 32 33 33 33 34 34 35 35 35 35 35 35 35 35 35 35 36 36 37 37 37 38 38
25 26 27 27 26 25 24 24 23 23 22 23 24 26 27 26 24 23 22 22 21 21 21 21 21 20 20 19 20 20 21 20 20 20 19 18 18 18 19 19 18 18 18 18 19 19 19 19 20 20 22 25 27 28 28 29 29 29 30 30 31 31 32 32 33 33 34 34 34 35 35 35 35 35 35 35 36 36 36 36 37 37 37 38 38 38
27 28 28 27 26 25 24 23 23 23 23 25 26 26 25 24 24 23 22 22 22 23 23 23 22 21 21 20 20 21 22 21 20 19 18 17 17 17 18 18 18 18 17 17 17 17 17 19 21 24 25 26 27 28 28 28 29 29 30 30 31 31 32 32 33 33 34 34 34 35 35 35 35 35 35 36 36 36 37 37 37 37 37 37 37 38
28 29 29 28 27 25 24 24 24 24 25 26 27 26 25 24 24 24 23 23 24 24 24 24 23 23 22 21 21 21 21 20 20 19 18 17 16 17 18 18 18 18 17 17 18 18 18 19 20 23 25 26 27 27 28 28 29 29 29 30 30 31 31 32 32 33 33 34 34 34 35 35 35 35 35 35 36 36 36 36 36 36 37 37 37 37
30 30 29 28 27 26 24 24 24 25 27 28 27 26 25 25 24 24 24 24 24 25 25 24 23 22 22 21 21 21 21 20 19 18 17 16 16 16 17 17 17 17 17 18 19 19 19 20 20 20 24 25 26 27 27 28 28 29 29 29 29 29 30 31 31 32 33 33 33 34 34 34 34 35 35 35 35 35 35 36 36 36 36 36 36 37
31 29 29 27 26 26 25 25 26 27 29 29 28 27 26 25 25 25 25 26 26 25 25 24 23 23 22 22 22 21 20 20 18 17 16 15 15 15 16 17 17 17 17 18 18 19 19 19 19 20 23 25 26 26 26 27 27 27 28 28 29 29 29 30 30 31 32 32 33 33 33 33 33 34 34 34 35 35 35 35 35 35 36 36 36 37
29 28 27 26 26 26 26 26 27 28 29 29 29 28 28 27 27 27 27 27 27 26 24 24 24 23 23 22 21 20 20 19 17 16 15 14 14 14 15 16 16 16 16 16 17 17 18 18 18 19 22 24 25 25 26 26 26 27 27 28 28 29 29 29 30 30 31 32 32 33 33 33 33 33 33 34 34 34 34 35 35 36 36 37 37 37
27 27 26 26 27 27 27 27 28 29 29 29 29 29 30 30 30 30 29 28 26 25 24 24 23 22 20 20 19 18 18 18 17 16 15 14 13 14 15 15 15 15 15 15 16 16 16 16 17 18 20 23 24 25 25 26 26 26 27 27 28 28 29 29 30 31 32 33 33 33 34 34 34 34 34 34 34 34 34 35 36 36 37 37 38 38
27 27 26 27 28 29 29 29 29 31 32 32 32 32 32 32 31 29 27 26 25 24 23 22 20 19 18 18 18 17 16 16 16 15 14 14 14 14 15 15 15 15 15 15 16 16 16 16 17 18 19 21 23 24 25 25 26 26 26 27 27 28 29 29 30 31 32 32 33 33 33 34 34 34 34 34 34 34 35 35 36 37 37 37 38 38
30 29 29 30 31 32 32 33 34 35 36 35 34 33 31 29 28 26 24 24 23 22 21 20 18 17 17 16 16 16 16 16 16 15 15 14 14 14 15 15 15 16 16 16 17 17 17 18 18 19 19 20 22 24 25 25 25 25 26 26 27 28 29 29 29 29 30 30 30 31 32 32 33 33 34 34 35 35 35 35 36 36 37 37 37 37
33 33 33 33 33 34 35 36 37 38 37 36 33 31 29 27 25 23 22 22 21 20 20 18 18 17 17 16 16 15 16 16 16 16 15 15 14 14 15 16 16 17 17 17 18 19 20 20 19 19 19 19 20 22 24 24 24 25 25 26 26 27 27 27 27 27 28 28 29 29 30 31 32 33 33 34 35 35 35 35 35 36 36 36 37 37
33 33 33 34 35 36 38 38 38 37 35 33 33 31 29 25 23 22 21 21 20 20 19 19 18 17 17 16 16 16 16 16 16 16 15 15 14 14 15 16 17 17 17 17 18 19 20 19 18 18 17 17 18 20 22 23 24 24 24 25 25 25 25 26 26 27 28 28 29 29 30 31 32 33 34 34 35 35 35 35 35 35 35 36 37 38
32 33 33 34 36 37 37 36 34 33 32 31 30 29 27 24 23 22 21 21 20 20 19 19 19 18 17 17 17 16 16 16 16 15 15 15 14 14 15 15 16 17 17 16 16 16 16 16 16 16 16 17 18 19 20 21 22 23 24 24 24 25 25 26 26 27 28 29 29 30 31 32 33 33 34 34 35 35 35 34 34 34 35 36 37 38
31 32 32 33 33 33 32 30 29 29 29 29 28 28 27 25 23 22 22 21 20 20 20 20 20 19 19 18 17 16 15 15 15 15 15 14 14 14 15 15 15 16 16 16 15 14 14 14 15 15 16 18 18 18 18 19 20 21 21 22 24 24 25 26 26 27 28 29 29 30 31 32 33 33 34 35 35 35 35 34 34 34 34 36 37 38
29 29 29 29 29 28 27 25 26 26 27 28 28 27 26 25 23 22 22 21 21 20 20 20 20 20 20 18 17 15 14 14 15 17 16 15 15 15 15 15 16 16 17 16 15 14 13 13 14 15 16 17 17 18 19 19 19 20 20 20 21 23 25 25 26 27 28 29 29 30 31 32 33 33 34 35 35 36 36 36 35 35 34 35 36 37
28 28 27 26 25 24 23 23 23 23 24 25 25 26 26 25 24 23 23 22 22 21 21 21 20 20 20 19 18 16 15 15 17 19 18 16 16 16 16 16 16 17 17 17 16 15 14 13 13 14 15 16 16 17 19 19 19 20 20 20 20 21 24 25 25 26 27 28 29 30 31 31 32 32 33 34 34 35 36 36 36 35 34 34 35 36
28 27 26 26 24 22 21 21 21 21 22 23 23 24 24 24 25 25 24 23 22 22 21 21 20 20 20 19 18 18 17 17 18 20 20 18 17 16 16 16 16 16 17 17 17 16 15 15 15 15 15 15 15 16 17 18 19 20 20 20 20 20 22 24 24 25 26 27 28 28 29 29 30 30 31 32 33 34 35 36 36 36 35 34 34 35
28 28 26 24 23 21 21 20 20 21 22 22 22 23 23 23 24 24 24 24 23 22 22 21 20 20 20 19 19 18 18 17 20 21 22 19 18 17 17 16 16 16 16 16 16 16 15 15 15 15 15 15 15 16 16 17 18 19 20 19 19 19 20 22 23 23 24 24 24 25 26 27 28 29 29 30 32 33 34 35 35 36 37 35 35 34
27 27 26 24 22 21 20 20 20 21 21 22 22 23 23 23 23 23 24 23 23 22 22 21 21 20 20 20 19 19 18 18 20 22 22 20 19 18 17 17 16 16 16 16 15 15 15 15 15 15 15 15 15 15 15 16 17 18 19 19 19 20 20 21 22 22 22 23 23 23 23 24 25 26 28 30 31 33 33 34 35 35 36 37 36 36
26 26 25 23 22 20 20 20 20 21 21 21 22 22 23 23 22 22 22 22 23 23 23 23 22 22 21 21 20 20 19 19 20 22 23 21 19 18 17 17 16 16 16 16 16 16 15 15 16 17 16 15 15 15 15 15 17 17 18 19 20 20 20 21 21 21 21 22 22 22 22 23 24 26 28 30 32 33 33 33 34 34 35 36 37 37
26 25 24 23 21 20 20 20 20 20 20 21 21 21 22 22 22 22 22 22 22 23 23 24 24 24 24 23 22 21 21 20 21 22 23 21 20 19 18 17 17 18 17 17 17 16 16 16 16 16 16 15 14 14 15 15 16 17 18 19 19 20 20 21 21 21 21 22 22 22 23 24 24 25 27 29 31 31 32 33 33 33 34 35 36 37
25 25 24 22 20 20 20 20 20 20 20 20 20 20 21 21 21 21 21 21 21 21 22 22 23 23 25 25 25 24 23 22 22 22 22 21 20 19 18 18 18 18 18 18 18 18 18 17 16 15 15 15 15 15 16 16 17 17 17 19 19 20 20 20 21 21 21 22 23 23 24 24 24 24 24 26 27 28 29 30 32 33 34 34 35 36
25 24 23 22 21 20 20 19 19 20 20 20 21 21 21 21 22 22 22 22 21 21 22 22 22 22 22 23 24 25 25 24 23 22 22 21 21 20 19 18 18 18 18 18 19 19 18 18 17 16 15 15 15 16 16 16 17 17 18 19 19 20 20 20 21 22 22 22 23 23 23 23 23 23 24 25 26 27 29 29 31 32 32 32 33 34
24 23 22 22 21 20 19 20 20 20 20 21 22 23 22 22 22 22 22 23 23 23 22 22 22 22 22 23 23 24 24 24 24 23 22 21 20 20 19 18 17 17 17 18 18 18 19 18 18 18 18 17 17 17 17 17 17 18 20 19 19 19 19 20 20 21 22 22 22 22 22 22 23 24 24 26 27 29 29 29 30 31 31 31 32 32
23 22 21 21 20 20 20 21 21 20 20 21 21 21 21 21 21 21 22 22 23 23 22 22 21 21 21 21 21 21 21 22 22 22 22 21 20 20 19 18 17 17 17 17 18 18 19 19 19 18 18 18 18 18 18 18 19 20 21 20 19 19 20 20 21 21 21 21 21 22 22 23 23 24 25 26 28 29 30 31 31 32 32 31 31 32
23 22 21 20 20 20 20 20 21 22 21 21 20 20 20 21 21 21 22 21 21 21 20 20 20 20 20 20 20 20 20 20 21 22 22 21 20 20 20 19 18 17 17 17 17 18 19 19 19 19 19 19 19 18 18 18 19 20 20 20 20 20 20 20 20 20 20 20 21 22 23 23 23 23 24 24 26 28 30 32 33 33 33 33 32 32
22 22 20 20 20 20 20 21 22 22 21 20 20 21 21 22 22 23 23 22 21 20 21 20 20 20 20 20 20 20 20 20 20 20 21 20 20 20 20 19 19 18 18 18 18 18 19 20 19 19 19 19 19 19 19 19 19 19 20 20 20 20 19 19 19 19 20 20 21 21 22 22 22 23 23 24 24 25 27 29 31 33 34 33 33 33
22 21 20 20 20 20 21 21 20 20 20 21 21 22 22 23 23 23 23 22 21 21 21 21 20 20 20 20 19 19 19 19 19 19 20 21 22 22 21 20 20 20 19 19 18 18 18 19 19 18 19 19 19 19 19 19 19 19 19 20 21 21 20 20 20 20 20 21 21 22 22 22 23 23 23 24 24 25 26 26 28 30 32 33 33 33
21 20 20 20 20 20 20 20 20 20 21 21 21 22 23 23 23 23 22 22 21 21 21 21 20 20 20 19 19 18 18 18 19 19 19 21 23 24 23 21 20 20 19 19 18 18 18 18 18 18 19 19 19 19 19 19 19 19 20 20 21 21 21 22 22 22 21 21 21 21 22 23 23 23 23 24 24 24 25 26 27 28 30 30 31 32
20 20 20 20 20 20 20 20 20 20 20 21 22 22 22 22 22 22 22 22 22 21 21 21 20 20 20 19 19 18 18 17 18 18 18 19 20 20 21 21 20 20 19 18 18 18 18 18 18 18 18 18 18 18 19 19 19 19 19 20 20 21 21 22 22 22 22 21 21 21 22 23 23 23 23 24 24 24 25 26 27 28 29 29 29 30
20 20 20 20 20 20 20 20 20 20 20 20 21 21 22 22 22 22 22 22 21 21 21 21 21 20 20 19 18 18 17 17 17 18 18 19 19 19 19 19 20 20 19 18 18 18 18 18 18 18 18 17 17 17 17 18 18 19 19 20 20 20 20 21 21 21 22 22 22 22 23 24 23 23 23 24 24 24 25 26 27 28 29 29 29 30
21 20 20 20 20 20 20 20 20 19 20 20 20 21 22 22 22 22 22 21 21 22 22 21 21 20 19 19 18 18 18 18 18 18 18 18 18 19 18 18 18 18 18 18 18 18 18 19 19 19 18 18 17 17 18 18 19 19 19 20 20 20 20 21 21 22 22 22 23 24 24 24 23 23 23 23 24 24 24 25 26 27 28 29 29 30
21 21 21 20 20 20 20 19 19 19 19 20 20 20 21 22 23 23 22 22 22 22 22 21 20 20 19 18 18 19 19 19 18 18 18 18 18 18 18 17 17 17 16 16 16 16 17 18 19 19 19 19 19 19 19 19 20 20 20 20 21 21 21 21 22 22 22 23 23 24 24 24 24 24 24 24 24 24 24 24 25 26 27 28 29 29
21 21 21 21 20 20 20 20 20 20 20 20 20 20 20 21 22 22 23 23 23 22 22 21 21 20 19 19 18 19 19 19 18 18 18 18 18 18 17 17 17 16 16 15 15 14 14 15 16 18 20 20 20 20 19 20 20 20 21 21 22 22 22 22 23 23 23 23 23 24 24 24 25 25 24 24 24 24 24 24 25 26 27 28 29 29
22 21 21 21 20 20 20 20 20 20 20 20 20 20 20 21 21 22 22 23 23 23 22 21 20 20 20 19 19 19 20 19 18 18 18 18 17 17 17 17 16 16 15 15 14 13 12 11 11 13 15 18 20 20 19 19 19 20 20 20 21 21 22 23 23 24 24 24 24 24 24 24 24 25 24 24 24 24 24 24 24 25 26 28 29 29